timestamp,surface_pressure_avg,surface_temp_avg,battery_voltage,lat,long
2017-11-26 00:00:00+00:00,242.5898,7.07,12.73,47.84626,-54.09684
2017-11-26 00:10:00+00:00,243.0214,7.1,12.73,47.84626,-54.09684
2017-11-26 00:20:00+00:00,243.2547,7.1,12.81,47.84626,-54.09684
2017-11-26 00:30:00+00:00,244.5231,7.09,12.81,47.84626,-54.09684
2017-11-26 00:40:00+00:00,245.3397,7.0,12.81,47.84626,-54.09684
2017-11-26 00:50:00+00:00,246.1031,7.0,12.81,47.84626,-54.09684
2017-11-26 01:00:00+00:00,248.6365,7.0,12.73,47.84626,-54.09684
2017-11-26 01:10:00+00:00,251.8147,7.0,12.65,47.84626,-54.09684
2017-11-26 01:20:00+00:00,257.6681,7.0,12.73,47.84626,-54.09684
2017-11-26 01:30:00+00:00,263.4014,7.0,12.73,47.84626,-54.09684
2017-11-26 01:40:00+00:00,268.1714,7.0,12.81,47.84626,-54.09684
2017-11-26 01:50:00+00:00,273.4664,7.0,12.81,47.84626,-54.09684
2017-11-26 02:00:00+00:00,276.8781,7.0,12.73,47.84626,-54.09684
2017-11-26 02:10:00+00:00,277.3414,7.0,12.65,47.84626,-54.09684
2017-11-26 02:20:00+00:00,278.9164,7.0,12.73,47.84626,-54.09684
2017-11-26 02:30:00+00:00,284.8148,7.02,12.73,47.84626,-54.09684
2017-11-26 02:40:00+00:00,287.6464,7.06,12.73,47.84626,-54.09684
2017-11-26 02:50:00+00:00,284.743,7.08,12.73,47.84626,-54.09684
2017-11-26 03:00:00+00:00,284.6364,7.08,12.73,47.84626,-54.09684
2017-11-26 03:10:00+00:00,289.2448,7.09,12.65,47.84626,-54.09684
2017-11-26 03:20:00+00:00,292.8747,7.09,12.73,47.84626,-54.09684
2017-11-26 03:30:00+00:00,292.808,7.05,12.73,47.84626,-54.09684
2017-11-26 03:40:00+00:00,298.1314,7.06,12.73,47.84626,-54.09684
2017-11-26 03:50:00+00:00,302.6998,7.09,12.73,47.84626,-54.09684
2017-11-26 04:00:00+00:00,302.478,7.09,12.73,47.84626,-54.09684
2017-11-26 04:10:00+00:00,304.003,7.05,12.65,47.84626,-54.09684
2017-11-26 04:20:00+00:00,306.6047,7.08,12.73,47.84626,-54.09684
2017-11-26 04:30:00+00:00,303.7147,7.09,12.73,47.84626,-54.09684
2017-11-26 04:40:00+00:00,305.2697,7.06,12.73,47.84626,-54.09684
2017-11-26 04:50:00+00:00,314.093,7.05,12.73,47.84626,-54.09684
2017-11-26 05:00:00+00:00,312.1613,7.0,12.73,47.84626,-54.09684
2017-11-26 05:10:00+00:00,307.4997,7.0,12.65,47.84626,-54.09684
2017-11-26 05:20:00+00:00,312.023,7.05,12.73,47.84626,-54.09684
2017-11-26 05:30:00+00:00,313.6763,7.08,12.73,47.84626,-54.09684
2017-11-26 05:40:00+00:00,303.8613,7.08,12.73,47.84626,-54.09684
2017-11-26 05:50:00+00:00,307.223,7.09,12.73,47.84626,-54.09684
2017-11-26 06:00:00+00:00,311.3414,7.09,12.73,47.84626,-54.09684
2017-11-26 06:10:00+00:00,304.3214,7.09,12.65,47.84626,-54.09684
2017-11-26 06:20:00+00:00,292.548,7.06,12.73,47.84626,-54.09684
2017-11-26 06:30:00+00:00,292.0514,7.05,12.73,47.84626,-54.09684
2017-11-26 06:40:00+00:00,291.7581,7.05,12.73,47.84626,-54.09684
2017-11-26 06:50:00+00:00,280.0514,7.0,12.73,47.84626,-54.09684
2017-11-26 07:00:00+00:00,276.3414,7.0,12.73,47.84626,-54.09684
2017-11-26 07:10:00+00:00,280.5764,7.0,12.65,47.84626,-54.09684
2017-11-26 07:20:00+00:00,277.3548,7.0,12.73,47.84626,-54.09684
2017-11-26 07:30:00+00:00,265.4681,6.99,12.73,47.84626,-54.09684
2017-11-26 07:40:00+00:00,265.0114,6.99,12.73,47.84626,-54.09684
2017-11-26 07:50:00+00:00,264.9581,6.99,12.73,47.84626,-54.09684
2017-11-26 08:00:00+00:00,256.0514,6.99,12.73,47.84626,-54.09684
2017-11-26 08:10:00+00:00,243.9948,6.98,12.65,47.84626,-54.09684
2017-11-26 08:20:00+00:00,243.0081,6.98,12.73,47.84626,-54.09684
2017-11-26 08:30:00+00:00,240.9764,6.98,12.73,47.84626,-54.09684
2017-11-26 08:40:00+00:00,231.7248,6.96,12.73,47.84626,-54.09684
2017-11-26 08:50:00+00:00,227.3398,6.94,12.73,47.84626,-54.09684
2017-11-26 09:00:00+00:00,235.0064,6.94,12.73,47.84626,-54.09684
2017-11-26 09:10:00+00:00,234.4214,6.95,12.65,47.84626,-54.09684
2017-11-26 09:20:00+00:00,227.1165,6.93,12.73,47.84626,-54.09684
2017-11-26 09:30:00+00:00,224.3864,6.9,12.73,47.84626,-54.09684
2017-11-26 09:40:00+00:00,227.3298,6.9,12.73,47.84626,-54.09684
2017-11-26 09:50:00+00:00,226.3981,6.9,12.73,47.84626,-54.09684
2017-11-26 10:00:00+00:00,222.0214,6.9,12.73,47.84626,-54.09684
2017-11-26 10:10:00+00:00,220.1331,6.9,12.65,47.84626,-54.09684
2017-11-26 10:20:00+00:00,224.7431,6.9,12.73,47.84626,-54.09684
2017-11-26 10:30:00+00:00,222.0247,6.9,12.73,47.84626,-54.09684
2017-11-26 10:40:00+00:00,218.2498,6.9,12.73,47.84626,-54.09684
2017-11-26 10:50:00+00:00,223.5965,6.9,12.73,47.84626,-54.09684
2017-11-26 11:00:00+00:00,228.7897,6.9,12.73,47.84626,-54.09684
2017-11-26 11:10:00+00:00,228.7764,6.9,12.65,47.84626,-54.09684
2017-11-26 11:20:00+00:00,231.1348,6.9,12.73,47.84626,-54.09684
2017-11-26 11:30:00+00:00,231.0298,6.9,12.73,47.84626,-54.09684
2017-11-26 11:40:00+00:00,230.6814,6.9,12.73,47.84626,-54.09684
2017-11-26 11:50:00+00:00,233.7014,6.9,12.73,47.84626,-54.09684
2017-11-26 12:00:00+00:00,236.0397,6.9,12.73,47.84626,-54.09684
2017-11-26 12:10:00+00:00,237.6481,6.9,12.65,47.84626,-54.09684
2017-11-26 12:20:00+00:00,238.2781,6.9,12.73,47.84626,-54.09684
2017-11-26 12:30:00+00:00,241.0614,6.9,12.73,47.84626,-54.09684
2017-11-26 12:40:00+00:00,241.1114,6.9,12.73,47.84626,-54.09684
2017-11-26 12:50:00+00:00,242.8997,6.9,12.73,47.84626,-54.09684
2017-11-26 13:00:00+00:00,247.1364,6.9,12.73,47.84626,-54.09684
2017-11-26 13:10:00+00:00,254.4081,6.9,12.65,47.84626,-54.09684
2017-11-26 13:20:00+00:00,255.843,6.9,12.73,47.84626,-54.09684
2017-11-26 13:30:00+00:00,257.2547,6.9,12.81,47.84626,-54.09684
2017-11-26 13:40:00+00:00,260.5514,6.89,12.81,47.84626,-54.09684
2017-11-26 13:50:00+00:00,268.8098,6.88,12.89,47.84626,-54.09684
2017-11-26 14:00:00+00:00,274.7831,6.89,12.81,47.84626,-54.09684
2017-11-26 14:10:00+00:00,281.313,6.87,12.81,47.84626,-54.09684
2017-11-26 14:20:00+00:00,285.7464,6.88,12.81,47.84626,-54.09684
2017-11-26 14:30:00+00:00,291.0348,6.85,12.81,47.84626,-54.09684
2017-11-26 14:40:00+00:00,295.5964,6.83,12.81,47.84626,-54.09684
2017-11-26 14:50:00+00:00,303.918,6.82,12.81,47.84626,-54.09684
2017-11-26 15:00:00+00:00,307.033,6.8,12.81,47.84626,-54.09684
2017-11-26 15:10:00+00:00,308.563,6.8,12.73,47.84626,-54.09684
2017-11-26 15:20:00+00:00,313.928,6.8,12.81,47.84626,-54.09684
2017-11-26 15:30:00+00:00,317.6547,6.8,12.81,47.84626,-54.09684
2017-11-26 15:40:00+00:00,317.2263,6.8,12.81,47.84626,-54.09684
2017-11-26 15:50:00+00:00,323.9997,6.76,12.81,47.84626,-54.09684
2017-11-26 16:00:00+00:00,333.038,6.73,12.73,47.84626,-54.09684
2017-11-26 16:10:00+00:00,334.6879,6.7,12.73,47.84626,-54.09684
2017-11-26 16:20:00+00:00,324.7513,6.7,12.73,47.84626,-54.09684
2017-11-26 16:30:00+00:00,326.2413,6.69,12.73,47.84626,-54.09684
2017-11-26 16:40:00+00:00,333.2596,6.69,12.81,47.84626,-54.09684
2017-11-26 16:50:00+00:00,335.6647,6.69,12.73,47.84626,-54.09684
2017-11-26 17:00:00+00:00,331.848,6.67,12.73,47.84626,-54.09684
2017-11-26 17:10:00+00:00,334.9147,6.68,12.65,47.84626,-54.09684
2017-11-26 17:20:00+00:00,340.6029,6.68,12.73,47.84626,-54.09684
2017-11-26 17:30:00+00:00,338.7096,6.66,12.73,47.84626,-54.09684
2017-11-26 17:40:00+00:00,335.7996,6.65,12.73,47.84626,-54.09684
2017-11-26 17:50:00+00:00,336.1046,6.64,12.73,47.84626,-54.09684
2017-11-26 18:00:00+00:00,339.8663,6.6,12.73,47.84626,-54.09684
2017-11-26 18:10:00+00:00,339.9747,6.6,12.65,47.84626,-54.09684
2017-11-26 18:20:00+00:00,331.7047,6.6,12.73,47.84626,-54.09684
2017-11-26 18:30:00+00:00,334.7946,6.6,12.73,47.84626,-54.09684
2017-11-26 18:40:00+00:00,336.0696,6.59,12.73,47.84626,-54.09684
2017-11-26 18:50:00+00:00,332.4896,6.56,12.73,47.84626,-54.09684
2017-11-26 19:00:00+00:00,324.4913,6.54,12.73,47.84626,-54.09684
2017-11-26 19:10:00+00:00,322.993,6.56,12.65,47.84626,-54.09684
2017-11-26 19:20:00+00:00,324.613,6.53,12.73,47.84626,-54.09684
2017-11-26 19:30:00+00:00,321.248,6.5,12.73,47.84626,-54.09684
2017-11-26 19:40:00+00:00,317.628,6.5,12.73,47.84626,-54.09684
2017-11-26 19:50:00+00:00,309.7863,6.5,12.73,47.84626,-54.09684
2017-11-26 20:00:00+00:00,307.7647,6.5,12.73,47.84626,-54.09684
2017-11-26 20:10:00+00:00,302.1246,6.5,12.65,47.84626,-54.09684
2017-11-26 20:20:00+00:00,298.0714,6.5,12.73,47.84626,-54.09684
2017-11-26 20:30:00+00:00,289.2748,6.5,12.73,47.84626,-54.09684
2017-11-26 20:40:00+00:00,289.7997,6.5,12.73,47.84626,-54.09684
2017-11-26 20:50:00+00:00,289.4764,6.5,12.73,47.84626,-54.09684
2017-11-26 21:00:00+00:00,289.4163,6.5,12.73,47.84626,-54.09684
2017-11-26 21:10:00+00:00,285.2697,6.5,12.65,47.84626,-54.09684
2017-11-26 21:20:00+00:00,282.3597,6.59,12.73,47.84626,-54.09684
2017-11-26 21:30:00+00:00,273.6214,6.5,12.73,47.84626,-54.09684
2017-11-26 21:40:00+00:00,271.5547,6.51,12.73,47.84626,-54.09684
2017-11-26 21:50:00+00:00,273.6147,6.66,12.73,47.84626,-54.09684
2017-11-26 22:00:00+00:00,274.2781,6.7,12.73,47.84626,-54.09684
2017-11-26 22:10:00+00:00,265.4281,6.6,12.65,47.84626,-54.09684
2017-11-26 22:20:00+00:00,260.9148,6.72,12.73,47.84626,-54.09684
2017-11-26 22:30:00+00:00,267.1347,7.0,12.73,47.84626,-54.09684
2017-11-26 22:40:00+00:00,266.2464,6.74,12.73,47.84626,-54.09684
2017-11-26 22:50:00+00:00,260.8114,6.6,12.73,47.84626,-54.09684
2017-11-26 23:00:00+00:00,260.3481,7.06,12.73,47.84626,-54.09684
2017-11-26 23:10:00+00:00,262.1248,7.2,12.65,47.84626,-54.09684
2017-11-26 23:20:00+00:00,256.4514,7.2,12.73,47.84626,-54.09684
2017-11-26 23:30:00+00:00,253.0647,7.2,12.73,47.84626,-54.09684
2017-11-26 23:40:00+00:00,249.633,7.2,12.73,47.84626,-54.09684
2017-11-26 23:50:00+00:00,250.8548,7.2,12.73,47.84626,-54.09684
